Location: Madrid
(40.4000°N, 3.6830°W)
Time: 01:41:03
(UTC+02:00)

ISS - Pass Details

Date: 17 July 2019
Orbit: 409 x 418 km, 51.6° (Epoch: 23 July)

Event Time Altitude Azimuth Distance (km) Brightness Sun altitude
Rises 23:47:45 0° 248° (WSW) 2,345 0.3 -18.9°
Reaches altitude 10° 23:49:55 10° 256° (WSW) 1,484 -0.7 -19.1°
Maximum altitude 23:53:06 42° 329° (NNW) 600 -2.5 -19.5°
Drops below altitude 10° 23:56:18 10° 42° (NE) 1,485 -0.8 -19.9°
Sets 23:58:27 0° 50° (NE) 2,348 0.1 -20.1°
